Find Starlink 30086

NORAD ID: 56297 Int'l Des: 2023-056 Owner: SPXS Country: US Constellation: starlink operational
LEOCIRCULAR

实时位置

正在加载3D地球...

关于 Starlink 30086

正在加载描述...

即将过境

Passes for default location (London). Set your location on the main map for personalized predictions.

高度历史

Loading altitude history...

两行轨道根数

1 56297U 23056M 26125.74542227 -.00003261 00000-0 -10907-3 0 9998
2 56297 43.0032 246.8101 0000863 265.9369 94.1384 15.27566306168760
Epoch: May 5, 2026 • Age: 8 hours

当前状态

高度 482.9 km
速度 7.63 km/s
星下点 -0.12°S, 5.14°W
发射日期 Apr 19, 2023
运行时间 3 years
类型 internet

技术详情

分类 Payload
质量 730.00 kg
干质量 700.00 kg
总质量 730.00 kg
长度 0.30 m
直径 4.10 m
跨度 29.00 m
形状 Box + pan
制造商 SPXS
平台类型 Starlink V2M
阶段状态 In Orbit
所有者/国家 SPXS/US

Most Searched